Year,Month,Day,Hour,Minute,Value (Times are PST for windspeed in km/hr)
2012,03,14,00,00,1.20
2012,03,14,00,01,0.20
2012,03,14,00,02,0.70
2012,03,14,00,03,0.00
2012,03,14,00,04,0.00
2012,03,14,00,05,0.70
2012,03,14,00,06,2.20
2012,03,14,00,07,2.10
2012,03,14,00,08,0.10
2012,03,14,00,09,1.30
2012,03,14,00,10,1.40
2012,03,14,00,11,0.10
2012,03,14,00,12,0.00
2012,03,14,00,13,1.00
2012,03,14,00,14,0.00
2012,03,14,00,15,0.00
2012,03,14,00,16,1.40
2012,03,14,00,17,3.90
2012,03,14,00,18,1.80
2012,03,14,00,19,2.70
2012,03,14,00,20,1.80
2012,03,14,00,21,1.80
2012,03,14,00,22,0.00
2012,03,14,00,23,0.80
2012,03,14,00,24,0.00
2012,03,14,00,25,0.00
2012,03,14,00,26,0.00
2012,03,14,00,27,0.80
2012,03,14,00,28,0.70
2012,03,14,00,29,3.20
2012,03,14,00,30,2.20
2012,03,14,00,31,0.00
2012,03,14,00,32,2.20
2012,03,14,00,33,1.80
2012,03,14,00,34,0.20
2012,03,14,00,35,1.50
2012,03,14,00,36,0.00
2012,03,14,00,37,0.10
2012,03,14,00,38,1.60
2012,03,14,00,39,5.50
2012,03,14,00,40,5.40
2012,03,14,00,41,7.50
2012,03,14,00,42,7.40
2012,03,14,00,43,2.80
2012,03,14,00,44,1.40
2012,03,14,00,45,1.60
2012,03,14,00,46,0.10
2012,03,14,00,47,1.10
2012,03,14,00,48,4.80
2012,03,14,00,49,5.80
2012,03,14,00,50,11.00
2012,03,14,00,51,3.10
2012,03,14,00,52,7.80
2012,03,14,00,53,11.90
2012,03,14,00,54,11.60
2012,03,14,00,55,9.80
2012,03,14,00,56,7.40
2012,03,14,00,57,9.30
2012,03,14,00,58,11.70
2012,03,14,00,59,9.60
2012,03,14,01,00,7.10
2012,03,14,01,01,9.70
2012,03,14,01,02,8.90
2012,03,14,01,03,5.30
2012,03,14,01,04,10.10
2012,03,14,01,05,8.70
2012,03,14,01,06,7.50
2012,03,14,01,07,6.80
2012,03,14,01,08,7.50
2012,03,14,01,09,9.70
2012,03,14,01,10,9.80
2012,03,14,01,11,8.40
2012,03,14,01,12,4.90
2012,03,14,01,13,8.50
2012,03,14,01,14,9.10
2012,03,14,01,15,10.90
2012,03,14,01,16,7.00
2012,03,14,01,17,7.30
2012,03,14,01,18,2.60
2012,03,14,01,19,5.10
2012,03,14,01,20,6.00
2012,03,14,01,21,8.70
2012,03,14,01,22,8.20
2012,03,14,01,23,8.40
2012,03,14,01,24,5.40
2012,03,14,01,25,3.50
2012,03,14,01,26,2.80
2012,03,14,01,27,8.80
2012,03,14,01,28,6.20
2012,03,14,01,29,8.70
2012,03,14,01,30,6.40
2012,03,14,01,31,2.00
2012,03,14,01,32,6.20
2012,03,14,01,33,9.50
2012,03,14,01,34,6.80
2012,03,14,01,35,10.80
2012,03,14,01,36,8.70
2012,03,14,01,37,6.00
2012,03,14,01,38,10.10
2012,03,14,01,39,10.60
2012,03,14,01,40,14.10
2012,03,14,01,41,9.10
2012,03,14,01,42,11.80
2012,03,14,01,43,8.20
2012,03,14,01,44,5.20
2012,03,14,01,45,11.80
2012,03,14,01,46,6.80
2012,03,14,01,47,8.10
2012,03,14,01,48,5.40
2012,03,14,01,49,12.50
2012,03,14,01,50,3.10
2012,03,14,01,51,5.20
2012,03,14,01,52,7.90
2012,03,14,01,53,11.20
2012,03,14,01,54,7.70
2012,03,14,01,55,6.50
2012,03,14,01,56,7.40
2012,03,14,01,57,7.60
2012,03,14,01,58,11.60
2012,03,14,01,59,11.10
2012,03,14,02,00,8.70
2012,03,14,02,01,10.80
2012,03,14,02,02,11.00
2012,03,14,02,03,8.20
2012,03,14,02,04,13.80
2012,03,14,02,05,12.60
2012,03,14,02,06,13.70
2012,03,14,02,07,11.90
2012,03,14,02,08,8.50
2012,03,14,02,09,6.20
2012,03,14,02,10,7.60
2012,03,14,02,11,8.30
2012,03,14,02,12,7.80
2012,03,14,02,13,3.30
2012,03,14,02,14,5.50
2012,03,14,02,15,5.60
2012,03,14,02,16,7.20
2012,03,14,02,17,6.40
2012,03,14,02,18,10.10
2012,03,14,02,19,6.80
2012,03,14,02,20,7.10
2012,03,14,02,21,7.90
2012,03,14,02,22,8.10
2012,03,14,02,23,6.10
2012,03,14,02,24,8.10
2012,03,14,02,25,12.50
2012,03,14,02,26,9.80
2012,03,14,02,27,7.70
2012,03,14,02,28,12.60
2012,03,14,02,29,11.00
2012,03,14,02,30,12.40
2012,03,14,02,31,13.60
2012,03,14,02,32,15.80
2012,03,14,02,33,7.80
2012,03,14,02,34,4.60
2012,03,14,02,35,12.00
2012,03,14,02,36,13.00
2012,03,14,02,37,11.40
2012,03,14,02,38,6.90
2012,03,14,02,39,8.60
2012,03,14,02,40,10.90
2012,03,14,02,41,13.30
2012,03,14,02,42,10.00
2012,03,14,02,43,10.70
2012,03,14,02,44,10.70
2012,03,14,02,45,11.30
2012,03,14,02,46,9.70
2012,03,14,02,47,8.40
2012,03,14,02,48,8.40
2012,03,14,02,49,9.20
2012,03,14,02,50,13.70
2012,03,14,02,51,9.00
2012,03,14,02,52,13.00
2012,03,14,02,53,15.50
2012,03,14,02,54,8.40
2012,03,14,02,55,4.50
2012,03,14,02,56,14.50
2012,03,14,02,57,12.60
2012,03,14,02,58,5.70
2012,03,14,02,59,3.70
2012,03,14,03,00,6.50
2012,03,14,03,01,7.80
2012,03,14,03,02,10.80
2012,03,14,03,03,7.10
2012,03,14,03,04,8.90
2012,03,14,03,05,5.70
2012,03,14,03,06,5.80
2012,03,14,03,07,10.00
2012,03,14,03,08,4.90
2012,03,14,03,09,3.70
2012,03,14,03,10,7.60
2012,03,14,03,11,9.40
2012,03,14,03,12,5.90
2012,03,14,03,13,7.40
2012,03,14,03,14,4.10
2012,03,14,03,15,9.50
2012,03,14,03,16,8.00
2012,03,14,03,17,6.80
2012,03,14,03,18,4.70
2012,03,14,03,19,3.00
2012,03,14,03,20,5.90
2012,03,14,03,21,9.20
2012,03,14,03,22,8.80
2012,03,14,03,23,8.90
2012,03,14,03,24,8.40
2012,03,14,03,25,8.30
2012,03,14,03,26,8.60
2012,03,14,03,27,9.40
2012,03,14,03,28,11.70
2012,03,14,03,29,7.70
2012,03,14,03,30,4.80
2012,03,14,03,31,5.10
2012,03,14,03,32,8.50
2012,03,14,03,33,12.10
2012,03,14,03,34,7.30
2012,03,14,03,35,7.60
2012,03,14,03,36,5.30
2012,03,14,03,37,0.80
2012,03,14,03,38,8.90
2012,03,14,03,39,7.40
2012,03,14,03,40,8.50
2012,03,14,03,41,7.30
2012,03,14,03,42,5.90
2012,03,14,03,43,8.10
2012,03,14,03,44,8.90
2012,03,14,03,45,4.40
2012,03,14,03,46,4.00
2012,03,14,03,47,4.50
2012,03,14,03,48,2.80
2012,03,14,03,49,6.40
2012,03,14,03,50,5.60
2012,03,14,03,51,3.30
2012,03,14,03,52,5.40
2012,03,14,03,53,2.60
2012,03,14,03,54,1.70
2012,03,14,03,55,6.20
2012,03,14,03,56,6.00
2012,03,14,03,57,8.20
2012,03,14,03,58,11.50
2012,03,14,03,59,11.00
2012,03,14,04,00,7.40
2012,03,14,04,01,5.40
2012,03,14,04,02,6.90
2012,03,14,04,03,12.60
2012,03,14,04,04,9.60
2012,03,14,04,05,13.30
2012,03,14,04,06,15.00
2012,03,14,04,07,15.70
2012,03,14,04,08,9.70
2012,03,14,04,09,11.70
2012,03,14,04,10,11.00
2012,03,14,04,11,10.60
2012,03,14,04,12,6.70
2012,03,14,04,13,11.10
2012,03,14,04,14,12.70
2012,03,14,04,15,10.30
2012,03,14,04,16,14.10
2012,03,14,04,17,12.30
2012,03,14,04,18,4.90
2012,03,14,04,19,10.70
2012,03,14,04,20,18.30
2012,03,14,04,21,13.90
2012,03,14,04,22,16.30
2012,03,14,04,23,14.40
2012,03,14,04,24,12.00
2012,03,14,04,25,13.80
2012,03,14,04,26,15.50
2012,03,14,04,27,12.90
2012,03,14,04,28,11.70
2012,03,14,04,29,10.40
2012,03,14,04,30,16.90
2012,03,14,04,31,15.90
2012,03,14,04,32,16.60
2012,03,14,04,33,15.10
2012,03,14,04,34,15.00
2012,03,14,04,35,12.90
2012,03,14,04,36,18.70
2012,03,14,04,37,18.00
2012,03,14,04,38,12.20
2012,03,14,04,39,14.20
2012,03,14,04,40,16.30
2012,03,14,04,41,16.30
2012,03,14,04,42,21.60
2012,03,14,04,43,20.00
2012,03,14,04,44,19.70
2012,03,14,04,45,18.80
2012,03,14,04,46,18.00
2012,03,14,04,47,20.70
2012,03,14,04,48,20.00
2012,03,14,04,49,12.60
2012,03,14,04,50,14.60
2012,03,14,04,51,23.60
2012,03,14,04,52,20.20
2012,03,14,04,53,17.80
2012,03,14,04,54,11.30
2012,03,14,04,55,16.00
2012,03,14,04,56,20.50
2012,03,14,04,57,16.70
2012,03,14,04,58,20.70
2012,03,14,04,59,18.30
2012,03,14,05,00,17.40
2012,03,14,05,01,11.10
2012,03,14,05,02,17.30
2012,03,14,05,03,11.30
2012,03,14,05,04,13.60
2012,03,14,05,05,14.70
2012,03,14,05,06,17.80
2012,03,14,05,07,13.80
2012,03,14,05,08,15.90
2012,03,14,05,09,17.40
2012,03,14,05,10,16.40
2012,03,14,05,11,10.90
2012,03,14,05,12,23.30
2012,03,14,05,13,20.20
2012,03,14,05,14,20.40
2012,03,14,05,15,24.30
2012,03,14,05,16,19.40
2012,03,14,05,17,20.70
2012,03,14,05,18,23.40
2012,03,14,05,19,22.00
2012,03,14,05,20,19.30
2012,03,14,05,21,22.20
2012,03,14,05,22,22.20
2012,03,14,05,23,17.50
2012,03,14,05,24,9.70
2012,03,14,05,25,14.30
2012,03,14,05,26,17.50
2012,03,14,05,27,20.50
2012,03,14,05,28,16.90
2012,03,14,05,29,15.70
2012,03,14,05,30,15.80
2012,03,14,05,31,13.80
2012,03,14,05,32,20.20
2012,03,14,05,33,21.60
2012,03,14,05,34,21.20
2012,03,14,05,35,21.60
2012,03,14,05,36,15.80
2012,03,14,05,37,21.30
2012,03,14,05,38,24.60
2012,03,14,05,39,23.00
2012,03,14,05,40,21.60
2012,03,14,05,41,21.40
2012,03,14,05,42,5.30
2012,03,14,05,43,15.40
2012,03,14,05,44,14.20
2012,03,14,05,45,18.80
2012,03,14,05,46,12.60
2012,03,14,05,47,21.10
2012,03,14,05,48,16.30
2012,03,14,05,49,16.10
2012,03,14,05,50,14.10
2012,03,14,05,51,22.90
2012,03,14,05,52,22.70
2012,03,14,05,53,28.00
2012,03,14,05,54,19.00
2012,03,14,05,55,25.80
2012,03,14,05,56,18.20
2012,03,14,05,57,22.20
2012,03,14,05,58,16.90
2012,03,14,05,59,13.40
2012,03,14,06,00,15.60
2012,03,14,06,01,21.30
2012,03,14,06,02,16.70
2012,03,14,06,03,13.80
2012,03,14,06,04,24.30
2012,03,14,06,05,16.50
2012,03,14,06,06,18.90
2012,03,14,06,07,19.10
2012,03,14,06,08,12.50
2012,03,14,06,09,21.00
2012,03,14,06,10,22.50
2012,03,14,06,11,21.60
2012,03,14,06,12,15.80
2012,03,14,06,13,14.10
2012,03,14,06,14,17.10
2012,03,14,06,15,12.90
2012,03,14,06,16,19.80
2012,03,14,06,17,19.70
2012,03,14,06,18,23.00
2012,03,14,06,19,16.30
2012,03,14,06,20,14.30
2012,03,14,06,21,18.20
2012,03,14,06,22,18.00
2012,03,14,06,23,15.80
2012,03,14,06,24,17.10
2012,03,14,06,25,20.20
2012,03,14,06,26,16.90
2012,03,14,06,27,14.80
2012,03,14,06,28,22.10
2012,03,14,06,29,17.90
2012,03,14,06,30,18.80
2012,03,14,06,31,17.20
2012,03,14,06,32,19.40
2012,03,14,06,33,15.40
2012,03,14,06,34,13.90
2012,03,14,06,35,14.70
2012,03,14,06,36,16.30
2012,03,14,06,37,18.50
2012,03,14,06,38,18.20
2012,03,14,06,39,18.90
2012,03,14,06,40,24.40
2012,03,14,06,41,15.40
2012,03,14,06,42,20.40
2012,03,14,06,43,26.30
2012,03,14,06,44,21.20
2012,03,14,06,45,14.50
2012,03,14,06,46,18.40
2012,03,14,06,47,22.90
2012,03,14,06,48,20.70
2012,03,14,06,49,24.50
2012,03,14,06,50,18.50
2012,03,14,06,51,21.30
2012,03,14,06,52,16.50
2012,03,14,06,53,18.10
2012,03,14,06,54,19.60
2012,03,14,06,55,23.40
2012,03,14,06,56,23.40
2012,03,14,06,57,20.80
2012,03,14,06,58,18.70
2012,03,14,06,59,18.10
2012,03,14,07,00,14.90
2012,03,14,07,01,21.80
2012,03,14,07,02,20.00
2012,03,14,07,03,22.70
2012,03,14,07,04,25.20
2012,03,14,07,05,25.80
2012,03,14,07,06,19.70
2012,03,14,07,07,25.50
2012,03,14,07,08,24.50
2012,03,14,07,09,23.90
2012,03,14,07,10,21.50
2012,03,14,07,11,12.20
2012,03,14,07,12,19.60
2012,03,14,07,13,21.50
2012,03,14,07,14,22.10
2012,03,14,07,15,16.50
2012,03,14,07,16,18.70
2012,03,14,07,17,22.40
2012,03,14,07,18,19.60
2012,03,14,07,19,19.90
2012,03,14,07,20,15.50
2012,03,14,07,21,20.80
2012,03,14,07,22,11.70
2012,03,14,07,23,22.60
2012,03,14,07,24,19.20
2012,03,14,07,25,14.80
2012,03,14,07,26,18.20
2012,03,14,07,27,22.00
2012,03,14,07,28,22.90
2012,03,14,07,29,15.40
2012,03,14,07,30,12.90
2012,03,14,07,31,17.20
2012,03,14,07,32,25.10
2012,03,14,07,33,24.90
2012,03,14,07,34,23.80
2012,03,14,07,35,16.40
2012,03,14,07,36,23.00
2012,03,14,07,37,24.30
2012,03,14,07,38,21.30
2012,03,14,07,39,30.20
2012,03,14,07,40,18.40
2012,03,14,07,41,24.50
2012,03,14,07,42,23.10
2012,03,14,07,43,24.60
2012,03,14,07,44,26.60
2012,03,14,07,45,21.20
2012,03,14,07,46,24.00
2012,03,14,07,47,16.40
2012,03,14,07,48,22.30
2012,03,14,07,49,23.60
2012,03,14,07,50,23.20
2012,03,14,07,51,22.90
2012,03,14,07,52,25.10
2012,03,14,07,53,24.50
2012,03,14,07,54,22.30
2012,03,14,07,55,17.20
2012,03,14,07,56,20.10
2012,03,14,07,57,22.10
2012,03,14,07,58,25.10
2012,03,14,07,59,25.70
2012,03,14,08,00,22.10
2012,03,14,08,01,19.60
2012,03,14,08,02,20.80
2012,03,14,08,03,14.80
2012,03,14,08,04,16.20
2012,03,14,08,05,19.80
2012,03,14,08,06,14.50
2012,03,14,08,07,21.80
2012,03,14,08,08,23.90
2012,03,14,08,09,31.40
2012,03,14,08,10,25.70
2012,03,14,08,11,17.10
2012,03,14,08,12,17.80
2012,03,14,08,13,28.30
2012,03,14,08,14,23.70
2012,03,14,08,15,29.80
2012,03,14,08,16,29.00
2012,03,14,08,17,25.70
2012,03,14,08,18,18.70
2012,03,14,08,19,24.90
2012,03,14,08,20,28.70
2012,03,14,08,21,28.60
2012,03,14,08,22,31.40
2012,03,14,08,23,21.80
2012,03,14,08,24,22.90
2012,03,14,08,25,25.00
2012,03,14,08,26,23.90
2012,03,14,08,27,26.80
2012,03,14,08,28,21.70
2012,03,14,08,29,19.00
2012,03,14,08,30,23.70
2012,03,14,08,31,27.20
2012,03,14,08,32,25.00
2012,03,14,08,33,25.50
2012,03,14,08,34,24.50
2012,03,14,08,35,18.40
2012,03,14,08,36,22.80
2012,03,14,08,37,26.20
2012,03,14,08,38,29.20
2012,03,14,08,39,32.40
2012,03,14,08,40,32.20
2012,03,14,08,41,28.60
2012,03,14,08,42,22.40
2012,03,14,08,43,29.70
2012,03,14,08,44,31.10
2012,03,14,08,45,27.10
2012,03,14,08,46,23.30
2012,03,14,08,47,30.70
2012,03,14,08,48,32.50
2012,03,14,08,49,26.70
2012,03,14,08,50,23.50
2012,03,14,08,51,17.20
2012,03,14,08,52,20.90
2012,03,14,08,53,19.10
2012,03,14,08,54,29.80
2012,03,14,08,55,19.70
2012,03,14,08,56,12.60
2012,03,14,08,57,25.80
2012,03,14,08,58,22.90
2012,03,14,08,59,20.90
2012,03,14,09,00,25.10
2012,03,14,09,01,29.40
2012,03,14,09,02,26.40
2012,03,14,09,03,27.90
2012,03,14,09,04,30.10
2012,03,14,09,05,26.60
2012,03,14,09,06,24.00
2012,03,14,09,07,27.10
2012,03,14,09,08,23.90
2012,03,14,09,09,26.00
2012,03,14,09,10,26.00
2012,03,14,09,11,20.00
2012,03,14,09,12,21.20
2012,03,14,09,13,23.40
2012,03,14,09,14,33.10
2012,03,14,09,15,27.10
2012,03,14,09,16,20.10
2012,03,14,09,17,28.20
2012,03,14,09,18,34.00
2012,03,14,09,19,34.10
2012,03,14,09,20,34.80
2012,03,14,09,21,33.90
2012,03,14,09,22,31.50
2012,03,14,09,23,30.30
2012,03,14,09,24,23.30
2012,03,14,09,25,17.80
2012,03,14,09,26,29.40
2012,03,14,09,27,25.10
2012,03,14,09,28,28.10
2012,03,14,09,29,35.00
2012,03,14,09,30,29.90
2012,03,14,09,31,13.80
2012,03,14,09,32,22.50
2012,03,14,09,33,31.30
2012,03,14,09,34,20.50
2012,03,14,09,35,26.10
2012,03,14,09,36,33.80
2012,03,14,09,37,29.90
2012,03,14,09,38,32.20
2012,03,14,09,39,24.60
2012,03,14,09,40,36.70
2012,03,14,09,41,29.80
2012,03,14,09,42,34.80
2012,03,14,09,43,22.60
2012,03,14,09,44,26.80
2012,03,14,09,45,33.40
2012,03,14,09,46,27.90
2012,03,14,09,47,17.40
2012,03,14,09,48,28.60
2012,03,14,09,49,26.30
2012,03,14,09,50,22.10
2012,03,14,09,51,26.10
2012,03,14,09,52,30.10
2012,03,14,09,53,31.00
2012,03,14,09,54,27.00
2012,03,14,09,55,22.00
2012,03,14,09,56,26.40
2012,03,14,09,57,28.60
2012,03,14,09,58,18.30
2012,03,14,09,59,30.00
2012,03,14,10,00,31.60
2012,03,14,10,01,30.80
2012,03,14,10,02,24.40
2012,03,14,10,03,21.00
2012,03,14,10,04,32.60
2012,03,14,10,05,27.40
2012,03,14,10,06,30.00
2012,03,14,10,07,33.80
2012,03,14,10,08,26.90
2012,03,14,10,09,32.50
2012,03,14,10,10,27.80
2012,03,14,10,11,34.80
2012,03,14,10,12,27.80
2012,03,14,10,13,26.40
2012,03,14,10,14,30.70
2012,03,14,10,15,33.70
2012,03,14,10,16,28.60
2012,03,14,10,17,34.00
2012,03,14,10,18,27.10
2012,03,14,10,19,24.50
2012,03,14,10,20,25.50
2012,03,14,10,21,32.60
2012,03,14,10,22,29.00
2012,03,14,10,23,36.50
2012,03,14,10,24,28.90
2012,03,14,10,25,24.70
2012,03,14,10,26,24.50
2012,03,14,10,27,23.00
2012,03,14,10,28,26.10
2012,03,14,10,29,41.10
2012,03,14,10,30,25.30
2012,03,14,10,31,26.80
2012,03,14,10,32,28.20
2012,03,14,10,33,26.30
2012,03,14,10,34,28.20
2012,03,14,10,35,19.60
2012,03,14,10,36,23.10
2012,03,14,10,37,30.70
2012,03,14,10,38,27.00
2012,03,14,10,39,29.70
2012,03,14,10,40,15.90
2012,03,14,10,41,18.90
2012,03,14,10,42,31.50
2012,03,14,10,43,28.10
2012,03,14,10,44,19.10
2012,03,14,10,45,22.40
2012,03,14,10,46,29.30
2012,03,14,10,47,24.50
2012,03,14,10,48,24.10
2012,03,14,10,49,19.20
2012,03,14,10,50,17.40
2012,03,14,10,51,27.40
2012,03,14,10,52,16.00
2012,03,14,10,53,29.20
2012,03,14,10,54,24.70
2012,03,14,10,55,32.00
2012,03,14,10,56,25.50
2012,03,14,10,57,29.70
2012,03,14,10,58,28.30
2012,03,14,10,59,27.40
2012,03,14,11,00,20.80
2012,03,14,11,01,21.80
2012,03,14,11,02,20.90
2012,03,14,11,03,20.00
2012,03,14,11,04,36.50
2012,03,14,11,05,36.10
2012,03,14,11,06,29.60
2012,03,14,11,07,28.60
2012,03,14,11,08,33.70
2012,03,14,11,09,28.90
2012,03,14,11,10,26.40
2012,03,14,11,11,24.00
2012,03,14,11,12,30.40
2012,03,14,11,13,25.80
2012,03,14,11,14,16.90
2012,03,14,11,15,11.50
2012,03,14,11,16,17.40
2012,03,14,11,17,24.50
2012,03,14,11,18,29.10
2012,03,14,11,19,22.70
2012,03,14,11,20,26.00
2012,03,14,11,21,25.80
2012,03,14,11,22,23.30
2012,03,14,11,23,25.10
2012,03,14,11,24,22.60
2012,03,14,11,25,19.30
2012,03,14,11,26,24.40
2012,03,14,11,27,32.60
2012,03,14,11,28,27.50
2012,03,14,11,29,23.40
2012,03,14,11,30,36.40
2012,03,14,11,31,22.30
2012,03,14,11,32,20.80
2012,03,14,11,33,17.80
2012,03,14,11,34,17.90
2012,03,14,11,35,23.70
2012,03,14,11,36,22.70
2012,03,14,11,37,24.60
2012,03,14,11,38,17.50
2012,03,14,11,39,16.30
2012,03,14,11,40,19.30
2012,03,14,11,41,23.50
2012,03,14,11,42,20.40
2012,03,14,11,43,24.70
2012,03,14,11,44,17.10
2012,03,14,11,45,14.90
2012,03,14,11,46,17.90
2012,03,14,11,47,17.30
2012,03,14,11,48,11.40
2012,03,14,11,49,14.20
2012,03,14,11,50,15.80
2012,03,14,11,51,9.50
2012,03,14,11,52,13.60
2012,03,14,11,53,21.00
2012,03,14,11,54,17.50
2012,03,14,11,55,20.40
2012,03,14,11,56,13.30
2012,03,14,11,57,18.70
2012,03,14,11,58,22.10
2012,03,14,11,59,12.60
2012,03,14,12,00,19.40
2012,03,14,12,01,8.30
2012,03,14,12,02,12.40
2012,03,14,12,03,20.70
2012,03,14,12,04,18.30
2012,03,14,12,05,17.90
2012,03,14,12,06,19.40
2012,03,14,12,07,18.00
2012,03,14,12,08,17.80
2012,03,14,12,09,10.50
2012,03,14,12,10,19.50
2012,03,14,12,11,16.90
2012,03,14,12,12,17.20
2012,03,14,12,13,18.20
2012,03,14,12,14,16.80
2012,03,14,12,15,18.00
2012,03,14,12,16,18.70
2012,03,14,12,17,19.10
2012,03,14,12,18,17.90
2012,03,14,12,19,14.70
2012,03,14,12,20,19.30
2012,03,14,12,21,18.80
2012,03,14,12,22,14.60
2012,03,14,12,23,23.50
2012,03,14,12,24,18.70
2012,03,14,12,25,18.90
2012,03,14,12,26,19.80
2012,03,14,12,27,17.90
2012,03,14,12,28,10.10
2012,03,14,12,29,13.70
2012,03,14,12,30,7.60
2012,03,14,12,31,7.60
2012,03,14,12,32,15.50
2012,03,14,12,33,12.60
2012,03,14,12,34,9.80
2012,03,14,12,35,15.30
2012,03,14,12,36,20.10
2012,03,14,12,37,15.90
2012,03,14,12,38,10.80
2012,03,14,12,39,16.40
2012,03,14,12,40,21.20
2012,03,14,12,41,17.30
2012,03,14,12,42,17.10
2012,03,14,12,43,18.20
2012,03,14,12,44,11.80
2012,03,14,12,45,7.20
2012,03,14,12,46,4.40
2012,03,14,12,47,13.70
2012,03,14,12,48,18.70
2012,03,14,12,49,14.40
2012,03,14,12,50,18.70
2012,03,14,12,51,17.40
2012,03,14,12,52,11.60
2012,03,14,12,53,15.60
2012,03,14,12,54,17.60
2012,03,14,12,55,17.90
2012,03,14,12,56,15.60
2012,03,14,12,57,7.90
2012,03,14,12,58,13.70
2012,03,14,12,59,10.50
2012,03,14,13,00,8.00
2012,03,14,13,01,11.70
2012,03,14,13,02,24.90
2012,03,14,13,03,16.40
2012,03,14,13,04,21.50
2012,03,14,13,05,15.30
2012,03,14,13,06,18.70
2012,03,14,13,07,14.80
2012,03,14,13,08,13.60
2012,03,14,13,09,16.70
2012,03,14,13,10,26.50
2012,03,14,13,11,13.30
2012,03,14,13,12,15.50
2012,03,14,13,13,14.60
2012,03,14,13,14,17.60
2012,03,14,13,15,22.30
2012,03,14,13,16,12.70
2012,03,14,13,17,20.10
2012,03,14,13,18,18.10
2012,03,14,13,19,16.60
2012,03,14,13,20,20.00
2012,03,14,13,21,9.90
2012,03,14,13,22,11.20
2012,03,14,13,23,13.20
2012,03,14,13,24,18.80
2012,03,14,13,25,15.50
2012,03,14,13,26,22.00
2012,03,14,13,27,20.70
2012,03,14,13,28,23.00
2012,03,14,13,29,17.50
2012,03,14,13,30,17.00
2012,03,14,13,31,13.70
2012,03,14,13,32,11.20
2012,03,14,13,33,14.60
2012,03,14,13,34,20.40
2012,03,14,13,35,20.80
2012,03,14,13,36,20.20
2012,03,14,13,37,18.30
2012,03,14,13,38,18.90
2012,03,14,13,39,17.40
2012,03,14,13,40,14.60
2012,03,14,13,41,8.80
2012,03,14,13,42,18.30
2012,03,14,13,43,16.70
2012,03,14,13,44,13.90
2012,03,14,13,45,19.40
2012,03,14,13,46,16.00
2012,03,14,13,47,15.70
2012,03,14,13,48,12.60
2012,03,14,13,49,17.70
2012,03,14,13,50,15.90
2012,03,14,13,51,14.80
2012,03,14,13,52,15.40
2012,03,14,13,53,12.20
2012,03,14,13,54,15.90
2012,03,14,13,55,15.80
2012,03,14,13,56,13.60
2012,03,14,13,57,16.70
2012,03,14,13,58,19.40
2012,03,14,13,59,18.10
2012,03,14,14,00,16.00
2012,03,14,14,01,19.40
2012,03,14,14,02,14.20
2012,03,14,14,03,17.50
2012,03,14,14,04,18.10
2012,03,14,14,05,18.10
2012,03,14,14,06,12.00
2012,03,14,14,07,7.70
2012,03,14,14,08,11.40
2012,03,14,14,09,14.20
2012,03,14,14,10,10.70
2012,03,14,14,11,12.70
2012,03,14,14,12,14.00
2012,03,14,14,13,15.30
2012,03,14,14,14,15.70
2012,03,14,14,15,13.00
2012,03,14,14,16,11.50
2012,03,14,14,17,10.80
2012,03,14,14,18,15.00
2012,03,14,14,19,16.90
2012,03,14,14,20,16.30
2012,03,14,14,21,15.40
2012,03,14,14,22,12.60
2012,03,14,14,23,12.40
2012,03,14,14,24,14.20
2012,03,14,14,25,9.30
2012,03,14,14,26,5.10
2012,03,14,14,27,9.70
2012,03,14,14,28,4.80
2012,03,14,14,29,6.40
2012,03,14,14,30,11.70
2012,03,14,14,31,8.90
2012,03,14,14,32,12.90
2012,03,14,14,33,13.90
2012,03,14,14,34,12.60
2012,03,14,14,35,11.70
2012,03,14,14,36,9.90
2012,03,14,14,37,6.10
2012,03,14,14,38,10.90
2012,03,14,14,39,15.30
2012,03,14,14,40,7.80
2012,03,14,14,41,15.40
2012,03,14,14,42,11.70
2012,03,14,14,43,14.20
2012,03,14,14,44,14.70
2012,03,14,14,45,10.80
2012,03,14,14,46,5.20
2012,03,14,14,47,9.50
2012,03,14,14,48,8.50
2012,03,14,14,49,7.90
2012,03,14,14,50,10.60
2012,03,14,14,51,13.90
2012,03,14,14,52,14.90
2012,03,14,14,53,14.00
2012,03,14,14,54,9.80
2012,03,14,14,55,9.70
2012,03,14,14,56,9.50
2012,03,14,14,57,7.30
2012,03,14,14,58,8.20
2012,03,14,14,59,9.00
2012,03,14,15,00,10.30
2012,03,14,15,01,5.10
2012,03,14,15,02,7.10
2012,03,14,15,03,6.00
2012,03,14,15,04,9.30
2012,03,14,15,05,8.50
2012,03,14,15,06,10.60
2012,03,14,15,07,9.60
2012,03,14,15,08,11.50
2012,03,14,15,09,5.90
2012,03,14,15,10,4.20
2012,03,14,15,11,8.00
2012,03,14,15,12,12.20
2012,03,14,15,13,6.80
2012,03,14,15,14,7.70
2012,03,14,15,15,9.10
2012,03,14,15,16,7.80
2012,03,14,15,17,3.20
2012,03,14,15,18,6.00
2012,03,14,15,19,9.50
2012,03,14,15,20,11.60
2012,03,14,15,21,9.70
2012,03,14,15,22,12.10
2012,03,14,15,23,13.80
2012,03,14,15,24,11.10
2012,03,14,15,25,2.70
2012,03,14,15,26,7.60
2012,03,14,15,27,6.70
2012,03,14,15,28,14.10
2012,03,14,15,29,10.70
2012,03,14,15,30,8.50
2012,03,14,15,31,5.50
2012,03,14,15,32,8.00
2012,03,14,15,33,12.10
2012,03,14,15,34,16.90
2012,03,14,15,35,13.40
2012,03,14,15,36,8.10
2012,03,14,15,37,12.10
2012,03,14,15,38,11.50
2012,03,14,15,39,13.80
2012,03,14,15,40,15.70
2012,03,14,15,41,15.00
2012,03,14,15,42,11.10
2012,03,14,15,43,11.00
2012,03,14,15,44,10.10
2012,03,14,15,45,9.10
2012,03,14,15,46,5.70
2012,03,14,15,47,6.10
2012,03,14,15,48,11.40
2012,03,14,15,49,12.20
2012,03,14,15,50,10.90
2012,03,14,15,51,13.60
2012,03,14,15,52,13.50
2012,03,14,15,53,12.00
2012,03,14,15,54,12.60
2012,03,14,15,55,16.50
2012,03,14,15,56,20.00
2012,03,14,15,57,14.10
2012,03,14,15,58,11.90
2012,03,14,15,59,13.00
2012,03,14,16,00,13.20
2012,03,14,16,01,8.80
2012,03,14,16,02,11.40
2012,03,14,16,03,10.10
2012,03,14,16,04,5.70
2012,03,14,16,05,9.40
2012,03,14,16,06,15.70
2012,03,14,16,07,20.70
2012,03,14,16,08,13.80
2012,03,14,16,09,11.80
2012,03,14,16,10,15.00
2012,03,14,16,11,8.50
2012,03,14,16,12,11.40
2012,03,14,16,13,9.80
2012,03,14,16,14,11.30
2012,03,14,16,15,12.60
2012,03,14,16,16,13.00
2012,03,14,16,17,7.30
2012,03,14,16,18,6.70
2012,03,14,16,19,11.10
2012,03,14,16,20,12.70
2012,03,14,16,21,14.50
2012,03,14,16,22,21.10
2012,03,14,16,23,12.50
2012,03,14,16,24,9.20
2012,03,14,16,25,17.40
2012,03,14,16,26,4.10
2012,03,14,16,27,8.80
2012,03,14,16,28,5.60
2012,03,14,16,29,11.90
2012,03,14,16,30,9.70
2012,03,14,16,31,9.20
2012,03,14,16,32,8.10
2012,03,14,16,33,4.90
2012,03,14,16,34,6.80
2012,03,14,16,35,9.10
2012,03,14,16,36,10.30
2012,03,14,16,37,16.70
2012,03,14,16,38,10.80
2012,03,14,16,39,15.80
2012,03,14,16,40,10.50
2012,03,14,16,41,8.40
2012,03,14,16,42,5.40
2012,03,14,16,43,9.10
2012,03,14,16,44,13.30
2012,03,14,16,45,17.70
2012,03,14,16,46,9.70
2012,03,14,16,47,16.40
2012,03,14,16,48,10.60
2012,03,14,16,49,13.40
2012,03,14,16,50,10.70
2012,03,14,16,51,12.70
2012,03,14,16,52,15.10
2012,03,14,16,53,13.20
2012,03,14,16,54,14.10
2012,03,14,16,55,11.50
2012,03,14,16,56,13.20
2012,03,14,16,57,13.00
2012,03,14,16,58,15.20
2012,03,14,16,59,10.40
2012,03,14,17,00,15.50
2012,03,14,17,01,13.20
2012,03,14,17,02,15.30
2012,03,14,17,03,11.80
2012,03,14,17,04,12.70
2012,03,14,17,05,11.10
2012,03,14,17,06,17.50
2012,03,14,17,07,18.70
2012,03,14,17,08,14.20
2012,03,14,17,09,14.20
2012,03,14,17,10,14.20
2012,03,14,17,11,18.30
2012,03,14,17,12,13.10
2012,03,14,17,13,14.30
2012,03,14,17,14,11.30
2012,03,14,17,15,6.50
2012,03,14,17,16,14.10
2012,03,14,17,17,14.60
2012,03,14,17,18,8.00
2012,03,14,17,19,9.30
2012,03,14,17,20,9.50
2012,03,14,17,21,15.00
2012,03,14,17,22,11.40
2012,03,14,17,23,12.10
2012,03,14,17,24,13.80
2012,03,14,17,25,15.30
2012,03,14,17,26,12.00
2012,03,14,17,27,14.10
2012,03,14,17,28,9.70
2012,03,14,17,29,14.60
2012,03,14,17,30,9.30
2012,03,14,17,31,10.10